Terminal Aerodrome Forecast
Issued by NWS Pittsburgh, PA

Home | Current Version | Previous Version | Text Only | Print | Product List | Glossary On
Versions: 1 2 3 4 5 6 7 8 9 10 11 12 13 14 15 16 17 18 19 20 21 22 23 24 25 26 27 28 29
000
FTUS41 KPBZ 060236 AAA
TAFPIT
TAF AMD
KPIT 060236Z 0603/0706 05006KT P6SM FEW050 OVC200
     FM061500 13004KT P6SM VCSH BKN040
     FM061800 19006KT 6SM -SHRA VCTS BKN035CB OVC050=

USA.gov is the U.S. government's official web portal to all federal, state and local government web resources and services.